When you browse on this site, cookies collect data to enhance your experience and personalize the content and advertising you see.
Visit our Privacy Policy to learn more. By continuing to use the site, you agree to this use of cookies and data.
  • In Czech Republic
  • List of Countries
  • For 7 days
  • Water Temperature
  • Weather Map
  • Weather Widgets
  • user-avatar
    Login

    Hourly Weather Socorro

    Today, 19 February, Wednesday

    Time Temperature Precipitation Wind Pressure Humidity
    00:00 +22°C° 0.2 mm 1 mps 661 mmHg 89%
    01:00 +21°C° 0.2 mm 1 mps 660 mmHg 90%
    02:00 +21°C° 0 mm 1 mps 660 mmHg 90%
    03:00 +21°C° 0 mm 1 mps 660 mmHg 89%
    04:00 +20°C° 0 mm 1 mps 660 mmHg 89%
    05:00 +21°C° 0 mm 1 mps 660 mmHg 88%
    06:00 +21°C° 0 mm 1 mps 661 mmHg 86%
    07:00 +21°C° 0 mm 1 mps 661 mmHg 84%
    08:00 +24°C° 0 mm 1 mps 662 mmHg 73%
    09:00 +28°C° 0 mm 1 mps 663 mmHg 62%
    10:00 +31°C° 0 mm 1 mps 664 mmHg 50%
    11:00 +31°C° 0.1 mm 1 mps 664 mmHg 48%
    12:00 +32°C° 0.1 mm 2 mps 663 mmHg 46%
    13:00 +34°C° 0.1 mm 2 mps 662 mmHg 44%
    14:00 +32°C° 0.2 mm 2 mps 662 mmHg 48%
    15:00 +31°C° 0.2 mm 2 mps 661 mmHg 53%
    16:00 +31°C° 0.2 mm 2 mps 660 mmHg 57%
    17:00 +28°C° 1.5 mm 1 mps 660 mmHg 68%
    18:00 +26°C° 1.5 mm 1 mps 660 mmHg 80%
    19:00 +21°C° 1.5 mm 0 mps 660 mmHg 91%
    20:00 +21°C° 1 mm 0 mps 661 mmHg 91%
    21:00 +21°C° 1 mm 0 mps 661 mmHg 91%
    22:00 +20°C° 1 mm 0 mps 662 mmHg 91%
    23:00 +20°C° 0.1 mm 0 mps 661 mmHg 91%

    Tomorrow, 20 February, Thursday

    Time Temperature Precipitation Wind Pressure Humidity
    00:00 +20°C° 0.1 mm 0 mps 661 mmHg 91%
    01:00 +20°C° 0.1 mm 0 mps 660 mmHg 91%
    02:00 +20°C° 0.2 mm 0 mps 660 mmHg 92%
    03:00 +19°C° 0.2 mm 0 mps 660 mmHg 92%
    04:00 +19°C° 0.2 mm 0 mps 660 mmHg 92%
    05:00 +19°C° 0.3 mm 0 mps 661 mmHg 91%
    06:00 +20°C° 0.3 mm 0 mps 661 mmHg 91%
    07:00 +20°C° 0.3 mm 0 mps 662 mmHg 90%
    08:00 +22°C° 0.6 mm 0 mps 662 mmHg 83%
    09:00 +24°C° 0.6 mm 0 mps 663 mmHg 76%
    10:00 +28°C° 0.6 mm 1 mps 664 mmHg 68%
    11:00 +29°C° 0.5 mm 1 mps 664 mmHg 65%
    12:00 +30°C° 0.5 mm 1 mps 663 mmHg 62%
    13:00 +31°C° 0.5 mm 2 mps 662 mmHg 59%
    14:00 +30°C° 0.8 mm 2 mps 662 mmHg 65%
    15:00 +29°C° 0.8 mm 1 mps 661 mmHg 70%
    16:00 +28°C° 0.8 mm 1 mps 660 mmHg 76%
    17:00 +26°C° 1.7 mm 1 mps 660 mmHg 82%
    18:00 +25°C° 1.7 mm 1 mps 660 mmHg 87%
    19:00 +21°C° 1.7 mm 0 mps 660 mmHg 93%
    20:00 +21°C° 0.5 mm 0 mps 661 mmHg 93%
    21:00 +20°C° 0.5 mm 0 mps 661 mmHg 92%
    22:00 +20°C° 0.5 mm 0 mps 662 mmHg 92%
    23:00 +20°C° 0.1 mm 0 mps 661 mmHg 92%

    Day after tomorrow, 21 February, Friday

    Time Temperature Precipitation Wind Pressure Humidity
    00:00 +20°C° 0.1 mm 0 mps 661 mmHg 92%
    01:00 +19°C° 0.1 mm 0 mps 661 mmHg 92%
    08:00 +21°C° 0.8 mm 0 mps 663 mmHg 87%
    09:00 +25°C° 0.8 mm 1 mps 663 mmHg 82%
    10:00 +27°C° 0.8 mm 1 mps 664 mmHg 77%
    11:00 +27°C° 1 mm 1 mps 663 mmHg 75%
    12:00 +28°C° 1 mm 1 mps 663 mmHg 72%
    13:00 +29°C° 1 mm 2 mps 662 mmHg 70%
    14:00 +28°C° 1.6 mm 1 mps 661 mmHg 75%
    15:00 +27°C° 1.6 mm 1 mps 661 mmHg 79%
    16:00 +26°C° 1.6 mm 1 mps 660 mmHg 84%
    17:00 +25°C° 2.2 mm 1 mps 660 mmHg 87%
    18:00 +24°C° 2.2 mm 1 mps 661 mmHg 91%
    19:00 +21°C° 2.2 mm 0 mps 661 mmHg 94%
    20:00 +20°C° 1.5 mm 0 mps 661 mmHg 94%
    21:00 +20°C° 1.5 mm 0 mps 662 mmHg 93%
    22:00 +22°C° 1.5 mm 1 mps 662 mmHg 93%
    23:00 +20°C° 1.3 mm 0 mps 662 mmHg 94%

    22 February, Saturday

    Time Temperature Precipitation Wind Pressure Humidity
    00:00 +19°C° 1.3 mm 0 mps 662 mmHg 94%
    01:00 +19°C° 1.3 mm 0 mps 662 mmHg 95%
    02:00 +19°C° 1.1 mm 0 mps 662 mmHg 95%
    03:00 +19°C° 1.1 mm 0 mps 661 mmHg 96%
    04:00 +19°C° 1.1 mm 0 mps 661 mmHg 96%
    05:00 +19°C° 1.1 mm 0 mps 662 mmHg 97%
    06:00 +19°C° 1.1 mm 0 mps 662 mmHg 97%
    07:00 +19°C° 1.1 mm 0 mps 663 mmHg 97%
    08:00 +20°C° 0.8 mm 0 mps 663 mmHg 95%
    09:00 +21°C° 0.8 mm 0 mps 663 mmHg 93%
    10:00 +21°C° 0.8 mm 0 mps 663 mmHg 92%
    11:00 +23°C° 0.9 mm 0 mps 663 mmHg 87%
    12:00 +26°C° 0.9 mm 1 mps 663 mmHg 81%
    13:00 +28°C° 0.9 mm 1 mps 662 mmHg 76%
    14:00 +27°C° 1.2 mm 1 mps 662 mmHg 80%
    15:00 +26°C° 1.2 mm 1 mps 661 mmHg 83%
    16:00 +26°C° 1.2 mm 1 mps 660 mmHg 86%
    17:00 +25°C° 1.2 mm 1 mps 661 mmHg 89%
    18:00 +21°C° 1.2 mm 0 mps 661 mmHg 92%
    19:00 +20°C° 1.2 mm 0 mps 661 mmHg 96%
    20:00 +20°C° 0.8 mm 0 mps 662 mmHg 95%
    21:00 +20°C° 0.8 mm 0 mps 662 mmHg 95%
    22:00 +19°C° 0.8 mm 0 mps 662 mmHg 95%
    23:00 +19°C° 0.5 mm 0 mps 662 mmHg 95%

    23 February, Sunday

    Time Temperature Precipitation Wind Pressure Humidity
    00:00 +19°C° 0.5 mm 0 mps 662 mmHg 96%
    01:00 +19°C° 0.5 mm 0 mps 662 mmHg 96%
    02:00 +19°C° 1.3 mm 0 mps 661 mmHg 97%
    03:00 +19°C° 1.3 mm 0 mps 661 mmHg 97%
    04:00 +19°C° 1.3 mm 0 mps 661 mmHg 98%
    05:00 +19°C° 1 mm 0 mps 662 mmHg 98%
    06:00 +19°C° 1 mm 0 mps 662 mmHg 98%
    07:00 +19°C° 1 mm 0 mps 663 mmHg 97%
    08:00 +20°C° 0.6 mm 0 mps 663 mmHg 96%
    09:00 +20°C° 0.6 mm 0 mps 664 mmHg 95%
    10:00 +21°C° 0.6 mm 0 mps 664 mmHg 93%
    11:00 +22°C° 0.3 mm 0 mps 664 mmHg 86%
    12:00 +26°C° 0.3 mm 1 mps 663 mmHg 79%
    13:00 +27°C° 0.3 mm 1 mps 663 mmHg 72%
    14:00 +27°C° 0.6 mm 1 mps 662 mmHg 77%
    15:00 +26°C° 0.6 mm 1 mps 661 mmHg 82%
    16:00 +25°C° 0.6 mm 1 mps 661 mmHg 87%
    17:00 +24°C° 0.5 mm 1 mps 661 mmHg 90%
    18:00 +21°C° 0.5 mm 0 mps 661 mmHg 93%
    19:00 +20°C° 0.5 mm 0 mps 661 mmHg 96%
    20:00 +19°C° 0.4 mm 0 mps 662 mmHg 96%
    21:00 +19°C° 0.4 mm 0 mps 662 mmHg 96%
    22:00 +19°C° 0.4 mm 0 mps 662 mmHg 96%
    23:00 +19°C° 0 mm 0 mps 662 mmHg 96%

    24 February, Monday

    Time Temperature Precipitation Wind Pressure Humidity
    00:00 +19°C° 0 mm 0 mps 662 mmHg 96%
    01:00 +19°C° 0 mm 0 mps 661 mmHg 96%
    02:00 +18°C° 0 mm 0 mps 661 mmHg 96%
    03:00 +18°C° 0 mm 0 mps 661 mmHg 96%
    04:00 +18°C° 0 mm 0 mps 660 mmHg 96%
    05:00 +18°C° 0.1 mm 0 mps 661 mmHg 96%
    06:00 +19°C° 0.1 mm 0 mps 662 mmHg 95%
    07:00 +19°C° 0.1 mm 0 mps 662 mmHg 94%
    08:00 +21°C° 0.1 mm 0 mps 663 mmHg 87%
    09:00 +23°C° 0.1 mm 0 mps 664 mmHg 79%
    10:00 +25°C° 0.1 mm 0 mps 664 mmHg 72%
    11:00 +28°C° 0.2 mm 1 mps 664 mmHg 69%
    12:00 +28°C° 0.2 mm 1 mps 663 mmHg 66%
    13:00 +29°C° 0.2 mm 2 mps 663 mmHg 64%
    14:00 +28°C° 0.2 mm 2 mps 662 mmHg 68%
    15:00 +28°C° 0.2 mm 2 mps 661 mmHg 73%
    16:00 +27°C° 0.2 mm 1 mps 661 mmHg 78%
    17:00 +25°C° 0.7 mm 1 mps 661 mmHg 84%
    18:00 +24°C° 0.7 mm 1 mps 661 mmHg 90%
    19:00 +20°C° 0.7 mm 0 mps 661 mmHg 96%
    20:00 +20°C° 0.5 mm 0 mps 661 mmHg 95%
    21:00 +19°C° 0.5 mm 0 mps 662 mmHg 95%
    22:00 +19°C° 0.5 mm 0 mps 662 mmHg 94%
    23:00 +19°C° 0 mm 0 mps 662 mmHg 95%
    Show more